Weather History for Gage, OK

Change the Weather History Date:

Saturday, January 18, 2014

  Actual Average Record
Temperature  
Mean Temperature 44 °F -  
Max Temperature 61 °F 44 °F 72 °F (1976)
Min Temperature 26 °F 22 °F -11 °F (1984)
Degree Days  
Heating Degree Days 22    
Moisture  
Dew Point 16 °F    
Average Humidity 40    
Maximum Humidity 64    
Minimum Humidity 17    
Precipitation  
Precipitation 0.00 in - - ()
Sea Level Pressure  
Sea Level Pressure 30.12 in    
Wind  
Wind Speed 12 mph (WNW)    
Max Wind Speed 25 mph    
Max Gust Speed 41 mph    
Visibility 10 miles    
Events      
Averages and records for this station are not official NWS values.
T = Trace of Precipitation, MM = Missing Value Source: NWS Daily Summary

Daily Weather History Graph

Daily Weather History Graph

Search for Another Location

Airport:

Trip Planner

Search our weather history database for the weather conditions in past years. The results will help you decide how hot, cold, wet, or windy it might be!

Date:

Astronomy

Jan. 18, 2014 Rise Set
Actual Time 7:48 AM CST 5:50 PM CST
Civil Twilight 7:20 AM CST 6:18 PM CST
Nautical Twilight 6:49 AM CST 6:50 PM CST
Astronomical Twilight 6:18 AM CST 7:20 PM CST
Moon 8:28 PM CST 8:54 AM CST
Length of Visible Light 10h 57m
Length of Day
10h 02m
Waning Gibbous, 94% of the Moon is Illuminated
Jan 18
Waning Gibbous
Jan 23
Last Quarter
Jan 30
New
Feb 6
First Quarter
Feb 14
Full

Hourly Weather History & Observations

Time (CST) Temp. Windchill Dew Point Humidity Pressure Visibility Wind Dir Wind Speed Gust Speed Precip Events Conditions
12:53 AM 27.0 °F 21.6 °F 15.1 °F 61% 30.06 in 10.0 mi WSW 4.6 mph - N/A   Clear
1:53 AM 28.0 °F 18.1 °F 16.0 °F 61% 30.05 in 10.0 mi WSW 11.5 mph - N/A   Clear
2:53 AM 30.9 °F 22.8 °F 16.0 °F 54% 30.04 in 10.0 mi WSW 9.2 mph - N/A   Clear
3:53 AM 28.9 °F 19.8 °F 16.0 °F 58% 30.04 in 10.0 mi WSW 10.4 mph - N/A   Clear
4:53 AM 30.9 °F 21.2 °F 17.1 °F 57% 30.04 in 10.0 mi West 12.7 mph - N/A   Clear
5:53 AM 30.0 °F 21.1 °F 17.1 °F 59% 30.03 in 10.0 mi West 10.4 mph - N/A   Clear
6:53 AM 28.9 °F 18.6 °F 17.1 °F 61% 30.06 in 10.0 mi West 12.7 mph - N/A   Clear
7:53 AM 28.9 °F 19.8 °F 18.0 °F 64% 30.08 in 10.0 mi West 10.4 mph - N/A   Clear
8:53 AM 34.0 °F 26.6 °F 19.0 °F 54% 30.09 in 10.0 mi West 9.2 mph - N/A   Clear
9:53 AM 46.0 °F 43.1 °F 19.0 °F 34% 30.11 in 10.0 mi WSW 5.8 mph - N/A   Clear
10:21 AM 55.4 °F - 17.6 °F 23% 30.10 in 10.0 mi NNW 23.0 mph 31.1 mph N/A   Clear
10:53 AM 55.9 °F - 18.0 °F 23% 30.13 in 10.0 mi NNW 25.3 mph 41.4 mph N/A   Clear
11:53 AM 57.9 °F - 18.0 °F 21% 30.12 in 10.0 mi NNW 25.3 mph 34.5 mph N/A   Clear
12:53 PM 60.1 °F - 17.1 °F 19% 30.09 in 10.0 mi NNW 24.2 mph 39.1 mph N/A   Clear
1:53 PM 61.0 °F - 15.1 °F 17% 30.07 in 10.0 mi NNW 24.2 mph 35.7 mph N/A   Clear
2:53 PM 60.1 °F - 16.0 °F 18% 30.07 in 10.0 mi NNW 20.7 mph 31.1 mph N/A   Clear
3:53 PM 57.9 °F - 16.0 °F 19% 30.10 in 10.0 mi NNW 23.0 mph 29.9 mph N/A   Clear
4:53 PM 55.9 °F - 12.9 °F 18% 30.12 in 10.0 mi North 23.0 mph 27.6 mph N/A   Overcast
5:53 PM 52.0 °F - 12.9 °F 21% 30.15 in 10.0 mi North 13.8 mph - N/A   Overcast
6:53 PM 46.0 °F 44.8 °F 12.9 °F 26% 30.19 in 10.0 mi NW 3.5 mph - N/A   Overcast
7:53 PM 39.9 °F 35.8 °F 14.0 °F 35% 30.22 in 10.0 mi NW 5.8 mph - N/A   Overcast
8:53 PM 37.0 °F 31.6 °F 14.0 °F 39% 30.23 in 10.0 mi NNW 6.9 mph - N/A   Scattered Clouds
9:53 PM 30.9 °F 25.2 °F 14.0 °F 50% 30.23 in 10.0 mi West 5.8 mph - N/A   Clear
10:53 PM 26.1 °F 18.4 °F 14.0 °F 60% 30.24 in 10.0 mi SW 6.9 mph - N/A   Clear
11:53 PM 30.0 °F 23.2 °F 15.1 °F 54% 30.23 in 10.0 mi SW 6.9 mph - N/A   Clear